Powrót do katalogu

COSMOS 617

AktywnyMilitariaLEO
NORAD 6985·PAYLOAD·🇷🇺 Russia

Wystrzelony Dec 19, 1973 z Plesetsk Cosmodrome

Loading…

Następne Przeloty (najbliższe 24 godziny)

TLE

ŚwieżeSource: Space-Track

Epoka: Sep 14, 2026, 10:59 UTC

1 06985U 73104A   26257.45796394 -.00000019  00000-0 -12040-4 0  9995
2 06985  74.0265 276.9347 0096918 294.1963 134.4501 12.63533429432509

Śledź COSMOS 617 w czasie rzeczywistym z AllMySat

Download on the App Store